Time,TemperatureF,DewpointF,PressureIn,WindDirection,WindDirectionDegrees,WindSpeedMPH,WindSpeedGustMPH,Humidity,HourlyPrecipIn,Conditions,Clouds,dailyrainin,SoftwareType,DateUTC
2013-03-11 00:02:00,44.0,9.0,25.37,ENE,63,3.0,6.0,23,-99.99,,,-99.99,,2013-03-11 07:02:00,
2013-03-11 00:12:00,44.0,10.0,25.37,ENE,60,3.0,5.0,24,-99.99,,,-99.99,,2013-03-11 07:12:00,
2013-03-11 00:21:00,44.0,9.0,25.37,NE,49,3.0,8.0,23,-99.99,,,-99.99,,2013-03-11 07:21:00,
2013-03-11 00:32:00,44.0,8.0,25.37,NE,50,3.0,7.0,22,-99.99,,,-99.99,,2013-03-11 07:32:00,
2013-03-11 00:42:00,44.0,8.0,25.37,ENE,61,3.0,5.0,22,-99.99,,,-99.99,,2013-03-11 07:42:00,
2013-03-11 00:52:00,44.0,9.0,25.37,NE,53,3.0,5.0,23,-99.99,,,-99.99,,2013-03-11 07:52:00,
2013-03-11 01:02:00,44.0,7.0,25.34,NE,55,3.0,7.0,21,-99.99,,,-99.99,,2013-03-11 08:02:00,
2013-03-11 01:12:00,45.0,7.0,25.34,ENE,57,4.0,9.0,21,-99.99,,,-99.99,,2013-03-11 08:12:00,
2013-03-11 01:22:00,45.0,6.0,25.34,NE,53,4.0,8.0,20,-99.99,,,-99.99,,2013-03-11 08:22:00,
2013-03-11 01:32:00,45.0,6.0,25.34,NE,53,4.0,8.0,20,-99.99,,,-99.99,,2013-03-11 08:32:00,
2013-03-11 01:42:00,46.0,5.0,25.34,NE,52,4.0,7.0,18,-99.99,,,-99.99,,2013-03-11 08:42:00,
2013-03-11 01:51:00,45.0,5.0,25.34,ENE,60,4.0,7.0,19,-99.99,,,-99.99,,2013-03-11 08:51:00,
2013-03-11 02:02:00,45.0,6.0,25.34,ENE,60,4.0,7.0,20,-99.99,,,-99.99,,2013-03-11 09:02:00,
2013-03-11 02:12:00,45.0,6.0,25.34,ENE,61,4.0,6.0,20,-99.99,,,-99.99,,2013-03-11 09:12:00,
2013-03-11 02:22:00,45.0,6.0,25.34,NE,55,4.0,9.0,20,-99.99,,,-99.99,,2013-03-11 09:22:00,
2013-03-11 02:32:00,45.0,5.0,25.34,NE,43,5.0,8.0,19,-99.99,,,-99.99,,2013-03-11 09:32:00,
2013-03-11 02:42:00,45.0,5.0,25.34,NE,49,4.0,8.0,19,-99.99,,,-99.99,,2013-03-11 09:42:00,
2013-03-11 02:52:00,45.0,4.0,25.34,NE,53,4.0,6.0,18,-99.99,,,-99.99,,2013-03-11 09:52:00,
2013-03-11 03:02:00,45.0,4.0,25.34,ENE,77,3.0,6.0,18,-99.99,,,-99.99,,2013-03-11 10:02:00,
2013-03-11 03:12:00,45.0,5.0,25.34,ENE,73,3.0,6.0,19,-99.99,,,-99.99,,2013-03-11 10:12:00,
2013-03-11 03:21:00,45.0,5.0,25.34,ENE,60,4.0,8.0,19,-99.99,,,-99.99,,2013-03-11 10:21:00,
2013-03-11 03:32:00,45.0,6.0,25.34,NE,49,4.0,6.0,20,-99.99,,,-99.99,,2013-03-11 10:32:00,
2013-03-11 03:41:00,44.0,8.0,25.37,NE,45,4.0,7.0,22,-99.99,,,-99.99,,2013-03-11 10:41:00,
2013-03-11 03:52:00,44.0,8.0,25.37,NE,37,5.0,7.0,22,-99.99,,,-99.99,,2013-03-11 10:52:00,
2013-03-11 04:02:00,44.0,9.0,25.37,NE,42,4.0,7.0,23,-99.99,,,-99.99,,2013-03-11 11:02:00,
2013-03-11 04:11:00,45.0,8.0,25.37,ENE,63,4.0,7.0,22,-99.99,,,-99.99,,2013-03-11 11:11:00,
2013-03-11 04:22:00,44.0,9.0,25.37,ENE,63,4.0,8.0,23,-99.99,,,-99.99,,2013-03-11 11:22:00,
2013-03-11 04:32:00,44.0,10.0,25.40,ENE,69,3.0,6.0,24,-99.99,,,-99.99,,2013-03-11 11:32:00,
2013-03-11 04:42:00,44.0,10.0,25.40,ENE,69,3.0,6.0,24,-99.99,,,-99.99,,2013-03-11 11:42:00,
2013-03-11 04:52:00,43.0,10.0,25.40,ENE,72,2.0,5.0,25,-99.99,,,-99.99,,2013-03-11 11:52:00,
2013-03-11 05:02:00,43.0,10.0,25.40,ENE,74,3.0,6.0,25,-99.99,,,-99.99,,2013-03-11 12:02:00,
2013-03-11 05:11:00,43.0,10.0,25.40,ENE,68,3.0,6.0,25,-99.99,,,-99.99,,2013-03-11 12:11:00,
2013-03-11 05:21:00,44.0,9.0,25.37,ENE,57,3.0,6.0,23,-99.99,,,-99.99,,2013-03-11 12:21:00,
2013-03-11 05:32:00,45.0,8.0,25.37,ENE,62,3.0,6.0,22,-99.99,,,-99.99,,2013-03-11 12:32:00,
2013-03-11 05:42:00,45.0,6.0,25.34,ENE,60,3.0,6.0,20,-99.99,,,-99.99,,2013-03-11 12:42:00,
2013-03-11 05:52:00,45.0,6.0,25.34,ENE,58,3.0,6.0,20,-99.99,,,-99.99,,2013-03-11 12:52:00,
2013-03-11 06:02:00,45.0,7.0,25.34,NE,54,3.0,7.0,21,-99.99,,,-99.99,,2013-03-11 13:02:00,
2013-03-11 06:12:00,45.0,8.0,25.37,ENE,64,3.0,7.0,22,-99.99,,,-99.99,,2013-03-11 13:12:00,
2013-03-11 06:22:00,44.0,8.0,25.37,ENE,61,3.0,6.0,22,-99.99,,,-99.99,,2013-03-11 13:22:00,
2013-03-11 06:32:00,44.0,8.0,25.37,ENE,62,2.0,5.0,22,-99.99,,,-99.99,,2013-03-11 13:32:00,
2013-03-11 06:42:00,44.0,8.0,25.37,ENE,62,2.0,5.0,22,-99.99,,,-99.99,,2013-03-11 13:42:00,
2013-03-11 06:52:00,44.0,8.0,25.37,ENE,64,3.0,7.0,22,-99.99,,,-99.99,,2013-03-11 13:52:00,
2013-03-11 07:01:00,44.0,9.0,25.37,ENE,57,3.0,5.0,23,-99.99,,,-99.99,,2013-03-11 14:01:00,
2013-03-11 07:12:00,44.0,10.0,25.37,ENE,68,3.0,6.0,24,-99.99,,,-99.99,,2013-03-11 14:12:00,
2013-03-11 07:22:00,44.0,10.0,25.40,ENE,60,3.0,6.0,24,-99.99,,,-99.99,,2013-03-11 14:22:00,
2013-03-11 07:32:00,44.0,10.0,25.40,ENE,63,3.0,5.0,25,-99.99,,,-99.99,,2013-03-11 14:32:00,
2013-03-11 07:42:00,45.0,11.0,25.40,ENE,57,3.0,6.0,25,-99.99,,,-99.99,,2013-03-11 14:42:00,
2013-03-11 07:52:00,45.0,11.0,25.40,ENE,62,3.0,5.0,25,-99.99,,,-99.99,,2013-03-11 14:52:00,
2013-03-11 08:02:00,45.0,11.0,25.40,ENE,59,3.0,5.0,25,-99.99,,,-99.99,,2013-03-11 15:02:00,
2013-03-11 08:12:00,45.0,11.0,25.40,NE,56,3.0,6.0,25,-99.99,,,-99.99,,2013-03-11 15:12:00,
2013-03-11 08:22:00,45.0,11.0,25.40,NE,55,4.0,7.0,25,-99.99,,,-99.99,,2013-03-11 15:22:00,
2013-03-11 08:32:00,45.0,12.0,25.43,ENE,60,3.0,6.0,26,-99.99,,,-99.99,,2013-03-11 15:32:00,
2013-03-11 08:42:00,46.0,12.0,25.40,NE,55,3.0,5.0,25,-99.99,,,-99.99,,2013-03-11 15:42:00,
2013-03-11 08:52:00,47.0,13.0,25.43,NE,52,3.0,6.0,25,-99.99,,,-99.99,,2013-03-11 15:52:00,
2013-03-11 09:00:00,50.0,15.0,25.43,ENE,61,3.0,7.0,24,-99.99,,,-99.99,,2013-03-11 16:00:00,
2013-03-11 09:02:00,47.0,13.0,25.43,NE,52,3.0,6.0,25,-99.99,,,-99.99,,2013-03-11 16:02:00,
2013-03-11 09:12:00,48.0,14.0,25.43,ENE,58,3.0,5.0,25,-99.99,,,-99.99,,2013-03-11 16:12:00,
2013-03-11 09:22:00,49.0,15.0,25.43,ENE,65,3.0,6.0,25,-99.99,,,-99.99,,2013-03-11 16:22:00,
2013-03-11 09:32:00,50.0,15.0,25.43,ENE,61,3.0,7.0,24,-99.99,,,-99.99,,2013-03-11 16:32:00,
2013-03-11 09:42:00,50.0,15.0,25.43,ENE,61,3.0,7.0,24,-99.99,,,-99.99,,2013-03-11 16:42:00,
2013-03-11 09:52:00,50.0,15.0,25.43,ENE,61,3.0,7.0,24,-99.99,,,-99.99,,2013-03-11 16:52:00,
2013-03-11 10:34:00,52.0,15.0,25.46,NE,46,3.0,7.0,23,-99.99,,,-99.99,,2013-03-11 17:34:00,
2013-03-11 10:42:00,52.0,16.0,25.46,ENE,68,3.0,6.0,24,-99.99,,,-99.99,,2013-03-11 17:42:00,
2013-03-11 10:52:00,52.0,16.0,25.46,NE,48,3.0,6.0,24,-99.99,,,-99.99,,2013-03-11 17:52:00,
2013-03-11 11:02:00,52.0,16.0,25.46,NE,48,3.0,6.0,24,-99.99,,,-99.99,,2013-03-11 18:02:00,
2013-03-11 11:11:00,52.0,15.0,25.46,NE,41,3.0,7.0,23,-99.99,,,-99.99,,2013-03-11 18:11:00,
2013-03-11 11:22:00,53.0,15.0,25.46,NE,39,3.0,7.0,22,-99.99,,,-99.99,,2013-03-11 18:22:00,
2013-03-11 11:32:00,53.0,15.0,25.46,NE,51,3.0,6.0,22,-99.99,,,-99.99,,2013-03-11 18:32:00,
2013-03-11 11:42:00,54.0,15.0,25.46,NE,37,2.0,5.0,21,-99.99,,,-99.99,,2013-03-11 18:42:00,
2013-03-11 11:52:00,54.0,16.0,25.46,NE,49,2.0,5.0,22,-99.99,,,-99.99,,2013-03-11 18:52:00,
2013-03-11 12:02:00,54.0,15.0,25.46,NE,53,3.0,6.0,21,-99.99,,,-99.99,,2013-03-11 19:02:00,
2013-03-11 12:12:00,54.0,15.0,25.46,NE,51,3.0,7.0,21,-99.99,,,-99.99,,2013-03-11 19:12:00,
2013-03-11 12:22:00,54.0,15.0,25.46,East,81,2.0,6.0,21,-99.99,,,-99.99,,2013-03-11 19:22:00,
2013-03-11 12:32:00,54.0,14.0,25.46,NE,55,2.0,8.0,20,-99.99,,,-99.99,,2013-03-11 19:32:00,
2013-03-11 12:42:00,55.0,15.0,25.46,NE,38,1.0,4.0,20,-99.99,,,-99.99,,2013-03-11 19:42:00,
2013-03-11 12:52:00,55.0,14.0,25.43,East,94,2.0,5.0,19,-99.99,,,-99.99,,2013-03-11 19:52:00,
2013-03-11 13:02:00,55.0,15.0,25.46,NE,55,2.0,5.0,20,-99.99,,,-99.99,,2013-03-11 20:02:00,
2013-03-11 13:11:00,55.0,15.0,25.46,NE,38,2.0,5.0,20,-99.99,,,-99.99,,2013-03-11 20:11:00,
2013-03-11 13:22:00,57.0,16.0,25.46,NNE,27,2.0,5.0,20,-99.99,,,-99.99,,2013-03-11 20:22:00,
2013-03-11 13:32:00,56.0,14.0,25.46,ENE,59,2.0,6.0,19,-99.99,,,-99.99,,2013-03-11 20:32:00,
2013-03-11 13:42:00,57.0,15.0,25.46,North,1,2.0,4.0,19,-99.99,,,-99.99,,2013-03-11 20:42:00,
2013-03-11 13:52:00,57.0,15.0,25.46,NNE,31,2.0,4.0,19,-99.99,,,-99.99,,2013-03-11 20:52:00,
2013-03-11 14:02:00,57.0,15.0,25.46,NE,37,2.0,4.0,19,-99.99,,,-99.99,,2013-03-11 21:02:00,
2013-03-11 14:12:00,56.0,16.0,25.46,NE,54,2.0,4.0,20,-99.99,,,-99.99,,2013-03-11 21:12:00,
2013-03-11 14:22:00,56.0,16.0,25.46,ENE,61,2.0,4.0,20,-99.99,,,-99.99,,2013-03-11 21:22:00,
2013-03-11 14:32:00,56.0,14.0,25.43,East,91,1.0,5.0,19,-99.99,,,-99.99,,2013-03-11 21:32:00,
2013-03-11 14:43:00,56.0,14.0,25.43,East,99,2.0,5.0,19,-99.99,,,-99.99,,2013-03-11 21:43:00,
2013-03-11 14:52:00,57.0,16.0,25.46,NNE,29,1.0,4.0,20,-99.99,,,-99.99,,2013-03-11 21:52:00,
2013-03-11 15:02:00,57.0,16.0,25.46,NNE,29,1.0,4.0,20,-99.99,,,-99.99,,2013-03-11 22:02:00,
2013-03-11 15:12:00,56.0,17.0,25.46,ESE,115,1.0,4.0,21,-99.99,,,-99.99,,2013-03-11 22:12:00,
2013-03-11 15:22:00,56.0,16.0,25.43,ENE,71,2.0,3.0,20,-99.99,,,-99.99,,2013-03-11 22:22:00,
2013-03-11 15:32:00,57.0,16.0,25.46,North,3,1.0,3.0,20,-99.99,,,-99.99,,2013-03-11 22:32:00,
2013-03-11 15:43:00,56.0,16.0,25.43,East,84,2.0,5.0,20,-99.99,,,-99.99,,2013-03-11 22:43:00,
2013-03-11 15:52:00,56.0,17.0,25.46,NE,36,2.0,5.0,21,-99.99,,,-99.99,,2013-03-11 22:52:00,
2013-03-11 16:02:00,56.0,16.0,25.43,NNE,25,2.0,4.0,20,-99.99,,,-99.99,,2013-03-11 23:02:00,
2013-03-11 16:12:00,56.0,17.0,25.46,ENE,65,2.0,5.0,21,-99.99,,,-99.99,,2013-03-11 23:12:00,
2013-03-11 16:21:00,56.0,18.0,25.46,ENE,65,1.0,4.0,22,-99.99,,,-99.99,,2013-03-11 23:21:00,
2013-03-11 16:32:00,55.0,17.0,25.46,NE,51,1.0,4.0,22,-99.99,,,-99.99,,2013-03-11 23:32:00,
2013-03-11 16:42:00,55.0,16.0,25.46,NE,43,2.0,5.0,21,-99.99,,,-99.99,,2013-03-11 23:42:00,
2013-03-11 16:52:00,55.0,17.0,25.46,ENE,63,2.0,3.0,22,-99.99,,,-99.99,,2013-03-11 23:52:00,
2013-03-11 17:02:00,55.0,17.0,25.46,ENE,63,2.0,3.0,22,-99.99,,,-99.99,,2013-03-12 00:02:00,
2013-03-11 17:12:00,55.0,16.0,25.43,NE,55,2.0,4.0,21,-99.99,,,-99.99,,2013-03-12 00:12:00,
2013-03-11 17:22:00,55.0,17.0,25.46,ENE,76,1.0,2.0,22,-99.99,,,-99.99,,2013-03-12 00:22:00,
2013-03-11 17:32:00,55.0,17.0,25.46,NNE,29,1.0,3.0,22,-99.99,,,-99.99,,2013-03-12 00:32:00,
2013-03-11 17:42:00,55.0,17.0,25.46,NNW,338,1.0,4.0,22,-99.99,,,-99.99,,2013-03-12 00:42:00,
2013-03-11 17:52:00,55.0,18.0,25.46,North,351,1.0,2.0,23,-99.99,,,-99.99,,2013-03-12 00:52:00,
2013-03-11 18:02:00,55.0,21.0,25.49,NW,314,2.0,5.0,26,-99.99,,,-99.99,,2013-03-12 01:02:00,
2013-03-11 18:11:00,55.0,22.0,25.52,NW,314,2.0,5.0,27,-99.99,,,-99.99,,2013-03-12 01:11:00,
2013-03-11 18:22:00,55.0,22.0,25.52,NW,318,2.0,5.0,27,-99.99,,,-99.99,,2013-03-12 01:22:00,
2013-03-11 18:32:00,54.0,19.0,25.49,NW,325,2.0,4.0,25,-99.99,,,-99.99,,2013-03-12 01:32:00,
2013-03-11 18:42:00,54.0,19.0,25.49,NW,325,2.0,4.0,25,-99.99,,,-99.99,,2013-03-12 01:42:00,
2013-03-11 18:52:00,54.0,19.0,25.46,NW,320,1.0,2.0,25,-99.99,,,-99.99,,2013-03-12 01:52:00,
2013-03-11 19:02:00,53.0,19.0,25.49,NW,324,1.0,2.0,26,-99.99,,,-99.99,,2013-03-12 02:02:00,
2013-03-11 19:12:00,51.0,19.0,25.49,North,351,1.0,1.0,28,-99.99,,,-99.99,,2013-03-12 02:12:00,
2013-03-11 19:22:00,50.0,20.0,25.52,NNE,24,0.0,1.0,30,-99.99,,,-99.99,,2013-03-12 02:22:00,
2013-03-11 19:32:00,49.0,22.0,25.55,SE,128,1.0,1.0,34,-99.99,,,-99.99,,2013-03-12 02:32:00,
2013-03-11 19:42:00,46.0,22.0,25.58,ESE,123,1.0,1.0,39,-99.99,,,-99.99,,2013-03-12 02:42:00,
2013-03-11 19:52:00,45.0,23.0,25.61,ESE,103,1.0,1.0,42,-99.99,,,-99.99,,2013-03-12 02:52:00,
2013-03-11 20:01:00,45.0,23.0,25.61,ESE,103,1.0,1.0,42,-99.99,,,-99.99,,2013-03-12 03:01:00,
2013-03-11 20:12:00,43.0,22.0,25.61,East,99,1.0,1.0,43,-99.99,,,-99.99,,2013-03-12 03:12:00,
2013-03-11 20:22:00,42.0,22.0,25.63,ESE,104,1.0,1.0,44,-99.99,,,-99.99,,2013-03-12 03:22:00,
2013-03-11 20:32:00,42.0,21.0,25.61,ESE,107,1.0,1.0,43,-99.99,,,-99.99,,2013-03-12 03:32:00,
2013-03-11 20:42:00,42.0,22.0,25.63,East,93,1.0,1.0,45,-99.99,,,-99.99,,2013-03-12 03:42:00,
2013-03-11 20:52:00,42.0,24.0,25.66,ENE,67,1.0,1.0,48,-99.99,,,-99.99,,2013-03-12 03:52:00,
2013-03-11 21:02:00,42.0,24.0,25.66,ENE,67,1.0,1.0,48,-99.99,,,-99.99,,2013-03-12 04:02:00,
2013-03-11 21:12:00,40.0,24.0,25.72,ESE,110,1.0,1.0,52,-99.99,,,-99.99,,2013-03-12 04:12:00,
2013-03-11 21:22:00,41.0,24.0,25.69,ESE,120,1.0,1.0,50,-99.99,,,-99.99,,2013-03-12 04:22:00,
2013-03-11 21:32:00,41.0,24.0,25.69,East,79,1.0,1.0,50,-99.99,,,-99.99,,2013-03-12 04:32:00,
2013-03-11 21:42:00,42.0,25.0,25.69,ENE,74,1.0,2.0,51,-99.99,,,-99.99,,2013-03-12 04:42:00,
2013-03-11 21:52:00,42.0,26.0,25.72,ESE,104,1.0,3.0,52,-99.99,,,-99.99,,2013-03-12 04:52:00,
2013-03-11 22:02:00,42.0,25.0,25.72,East,91,1.0,1.0,51,-99.99,,,-99.99,,2013-03-12 05:02:00,
2013-03-11 22:12:00,43.0,25.0,25.69,East,97,1.0,1.0,49,-99.99,,,-99.99,,2013-03-12 05:12:00,
2013-03-11 22:21:00,43.0,26.0,25.69,East,89,1.0,1.0,50,-99.99,,,-99.99,,2013-03-12 05:21:00,
2013-03-11 22:32:00,42.0,27.0,25.75,East,89,1.0,1.0,56,-99.99,,,-99.99,,2013-03-12 05:32:00,
2013-03-11 22:42:00,42.0,27.0,25.75,East,89,1.0,1.0,56,-99.99,,,-99.99,,2013-03-12 05:42:00,
2013-03-11 22:52:00,42.0,26.0,25.72,ESE,123,1.0,1.0,53,-99.99,,,-99.99,,2013-03-12 05:52:00,
2013-03-11 23:02:00,42.0,26.0,25.72,ESE,123,1.0,1.0,53,-99.99,,,-99.99,,2013-03-12 06:02:00,
2013-03-11 23:11:00,42.0,20.0,25.58,East,94,1.0,1.0,41,-99.99,,,-99.99,,2013-03-12 06:11:00,
2013-03-11 23:22:00,42.0,22.0,25.63,East,86,1.0,1.0,45,-99.99,,,-99.99,,2013-03-12 06:22:00,
2013-03-11 23:32:00,46.0,18.0,25.49,ENE,68,2.0,2.0,32,-99.99,,,-99.99,,2013-03-12 06:32:00,
2013-03-11 23:42:00,46.0,18.0,25.49,ENE,68,2.0,2.0,32,-99.99,,,-99.99,,2013-03-12 06:42:00,
2013-03-11 23:52:00,48.0,15.0,25.46,ENE,72,2.0,3.0,26,-99.99,,,-99.99,,2013-03-12 06:52:00,